Wind_Speed
17 17 17 16 15 14 14 14 14 13 13 12 11 9 9 8 8 9 9 9 8 8 8 8 8 7 6 6 5 5 5 4 4 3 2 2 2 2 3 3 3 3 4
19 18 18 18 17 17 16 16 15 15 14 14 13 11 10 10 9 10 10 10 10 10 9 9 9 8 7 7 6 5 5 5 5 4 3 2 2 2 2 2 2 3 3
21 20 20 20 19 19 18 18 17 17 16 15 14 13 12 11 11 11 11 12 12 11 10 10 10 9 8 8 7 6 6 6 5 5 4 3 2 1 0 1 1 2 3
23 22 22 22 21 21 20 20 19 18 18 17 16 15 14 13 13 12 12 13 14 13 12 11 11 10 10 9 8 7 6 6 6 5 5 4 3 3 2 1 1 2 2
24 24 24 23 23 23 22 22 21 20 19 19 18 17 17 15 15 14 14 14 15 15 14 13 12 12 11 10 9 8 8 7 7 7 6 6 5 5 4 3 3 3 3
26 26 26 25 25 24 24 23 23 22 21 21 20 19 18 18 17 16 15 15 16 16 15 15 14 13 13 11 10 10 9 9 9 8 8 7 6 6 6 5 5 4 4
28 28 27 27 26 26 25 25 24 23 23 23 22 21 20 19 19 18 17 16 17 17 16 16 16 15 14 14 12 12 11 10 10 9 9 9 8 8 7 7 7 6 6
29 29 29 28 28 28 27 27 26 25 25 24 24 23 22 21 20 20 19 18 18 18 18 17 17 16 16 16 14 13 13 12 12 11 11 11 10 9 9 9 8 8 8
30 30 30 29 29 29 29 28 27 27 26 25 25 24 24 23 22 22 21 20 20 20 20 19 19 18 17 17 16 15 14 13 13 13 13 13 13 12 11 11 10 10 10
30 31 31 30 30 30 30 29 28 28 28 27 26 25 25 24 24 23 23 22 21 21 21 21 20 20 19 18 18 17 15 15 15 14 15 15 15 14 14 13 13 12 12
30 31 31 31 30 31 31 30 30 29 29 29 28 27 27 26 25 24 24 23 23 23 23 23 22 22 21 20 19 19 17 17 16 16 17 17 17 16 16 16 15 15 14
30 31 32 32 32 31 31 31 31 31 30 30 30 29 28 28 27 26 26 25 25 24 24 24 24 23 22 22 21 20 20 19 18 18 18 18 18 18 18 18 18 17 17
30 30 31 32 33 33 32 32 32 32 31 30 30 30 30 29 29 28 28 27 26 26 26 26 25 25 24 23 22 22 21 21 20 20 19 19 20 20 20 19 19 19 19
30 31 31 32 32 33 34 33 33 33 33 32 31 30 30 30 30 30 29 29 28 28 28 28 28 27 26 26 25 24 23 23 23 22 22 21 21 21 21 21 21 21 20
30 31 32 32 32 33 33 33 33 33 33 33 32 31 30 29 30 30 30 30 30 29 30 30 30 29 29 28 28 27 26 25 24 24 24 24 24 23 23 23 23 23 22
31 31 31 32 32 32 33 33 33 33 33 33 33 32 32 31 30 30 30 30 30 30 30 30 31 31 31 30 30 30 29 28 27 27 26 27 26 26 26 25 25 26 25
32 32 32 32 32 32 33 33 34 34 34 34 34 34 33 33 32 31 31 31 31 30 30 31 31 31 32 32 32 31 31 31 31 30 29 29 29 28 28 28 28 28 27
33 33 33 33 33 33 33 33 34 35 35 35 36 35 35 34 34 34 34 33 32 32 32 32 32 32 33 33 33 33 33 32 32 31 31 31 31 31 31 30 30 30 30
34 34 34 35 35 34 34 34 34 35 36 36 37 37 36 36 36 36 36 35 34 33 33 34 34 34 34 35 34 35 35 34 33 33 33 33 33 33 33 32 32 32 32
34 35 36 36 35 34 34 35 35 35 36 36 37 38 37 37 37 37 37 36 36 36 35 35 35 35 35 36 36 37 36 36 36 35 35 35 35 35 35 35 35 34 34
35 35 36 37 36 36 35 35 35 35 36 36 37 38 38 38 38 37 37 37 37 37 38 38 37 37 37 37 36 36 37 37 37 38 37 36 36 37 37 37 38 37 36
36 36 36 36 36 36 36 37 37 36 36 36 37 38 38 39 38 38 38 38 38 38 39 39 39 39 38 38 38 37 38 38 39 39 38 38 38 38 39 39 39 39 38
37 37 37 37 37 37 37 38 38 37 37 38 38 38 39 39 40 39 39 39 39 40 40 41 41 41 40 40 40 40 39 38 38 39 40 39 39 39 40 40 41 40 40
38 38 38 38 38 37 38 39 39 38 38 38 39 39 39 40 41 41 40 40 39 40 41 41 41 41 41 41 41 40 41 41 40 39 40 39 40 40 41 41 42 43 42
39 38 38 38 38 38 38 38 39 39 39 40 40 40 40 41 41 42 42 42 41 41 41 42 42 42 42 41 41 41 41 42 42 41 41 41 42 42 43 43 43 43 44
40 39 39 39 39 38 38 38 39 39 40 40 40 41 41 42 42 42 42 43 43 43 42 42 42 42 43 43 43 43 43 42 42 42 42 43 43 44 44 44 44 45 45
Wind_Direction
238 238 238 238 236 234 231 228 227 226 225 224 222 220 221 221 220 217 213 212 209 206 204 203 199 197 194 192 188 186 182 177 177 176 167 141 110 86 71 60 52 43 34
241 240 240 239 239 238 236 233 231 230 230 228 226 224 225 225 223 221 219 219 216 213 212 211 209 208 207 202 201 200 197 188 185 182 178 163 138 110 73 53 44 36 26
242 242 241 240 240 240 239 237 235 233 232 232 230 228 229 229 228 226 224 223 220 219 219 217 215 214 213 211 212 212 208 199 197 196 195 190 187 181 113 32 24 18 13
243 242 241 241 241 241 240 239 237 236 235 235 234 232 233 233 232 232 229 226 223 223 222 221 219 218 218 217 218 219 219 218 215 215 214 217 222 230 244 275 315 341 347
244 243 242 241 241 241 240 240 239 238 238 238 237 236 236 236 235 236 234 230 227 226 226 226 224 223 223 224 225 228 228 229 228 226 228 231 236 241 250 260 277 300 314
245 244 243 241 241 241 239 240 239 239 239 239 239 237 238 238 237 237 238 235 231 229 228 228 229 227 228 230 232 232 233 234 235 232 234 238 243 245 252 260 268 279 292
246 245 244 242 241 240 239 239 239 239 239 240 240 239 238 239 238 238 241 240 235 231 231 231 230 231 234 235 237 238 239 239 238 238 239 243 246 249 252 258 266 273 281
245 244 244 243 242 240 239 239 239 239 240 241 241 240 240 239 240 239 240 242 240 235 234 233 233 235 237 239 240 241 241 242 242 243 245 247 248 251 253 257 264 271 276
244 244 243 243 241 240 240 240 239 239 240 240 241 240 240 240 240 241 240 241 242 240 237 236 234 235 238 240 241 243 245 244 245 247 249 250 251 252 254 257 263 269 274
245 243 242 241 240 240 241 239 239 239 240 240 241 241 241 241 241 241 242 242 242 242 242 239 238 238 241 243 244 245 246 247 247 249 250 251 252 254 255 257 262 267 274
244 243 242 241 241 240 241 239 239 239 240 241 241 242 242 242 241 242 242 242 242 242 243 242 242 242 243 245 245 246 247 248 250 250 251 251 253 254 256 259 263 265 271
244 244 243 242 243 241 241 239 239 239 240 242 242 243 243 243 242 242 242 243 244 243 244 244 244 244 245 245 245 247 248 250 251 252 253 253 254 255 256 259 262 265 269
244 244 244 244 244 242 241 240 240 240 240 241 243 244 244 244 244 244 243 244 245 245 245 246 246 246 245 247 248 249 250 252 253 254 255 256 256 256 257 259 263 265 268
245 245 244 245 246 244 243 242 241 241 241 242 243 244 245 245 245 245 245 245 245 246 247 248 248 248 247 248 250 252 252 254 255 257 257 257 258 257 257 259 262 265 268
246 246 246 246 247 245 243 242 242 242 242 242 242 244 245 245 244 244 244 245 247 248 249 248 249 250 251 252 253 254 255 256 257 258 258 258 258 257 257 259 262 265 268
248 247 246 247 246 245 243 243 242 242 242 242 243 244 245 246 245 245 244 246 247 248 250 250 250 251 252 254 255 255 257 257 258 259 259 258 258 256 258 260 262 265 267
249 248 247 247 246 245 245 245 244 244 244 244 244 245 246 246 247 247 246 247 248 249 251 252 252 251 252 253 255 256 258 258 259 260 259 258 257 257 259 261 263 265 265
249 248 247 246 244 245 246 247 245 245 245 245 244 245 246 247 248 248 249 249 249 250 252 253 254 253 254 254 255 256 257 259 260 261 261 260 258 257 259 261 263 265 265
250 248 248 247 245 245 247 249 248 246 246 246 245 245 247 248 249 249 251 252 251 252 253 254 255 255 255 255 256 257 258 259 260 261 262 262 261 259 259 261 262 263 264
250 249 247 246 246 247 248 248 248 248 247 247 246 246 247 248 250 250 251 252 253 253 254 255 256 257 257 257 257 258 259 260 261 261 262 263 262 261 261 261 262 262 264
250 249 249 247 247 248 249 248 247 248 248 248 247 247 247 247 250 252 252 252 253 254 256 257 259 259 259 259 261 261 261 261 261 262 263 262 262 261 260 260 261 262 263
250 250 249 248 248 249 248 247 247 247 248 248 247 247 248 248 250 252 252 254 255 256 257 259 260 260 260 260 261 262 263 262 261 262 262 263 262 262 261 260 261 263 264
250 250 250 248 249 249 247 246 246 247 248 248 248 249 250 250 251 252 254 255 255 256 257 259 260 260 260 261 262 263 264 262 262 262 262 262 262 262 261 261 262 263 264
249 249 249 248 249 249 249 248 247 248 249 249 249 250 251 251 252 253 254 255 256 257 258 259 260 260 260 262 262 264 264 263 263 263 263 263 263 263 262 262 263 263 264
248 249 249 249 249 250 250 249 249 248 249 249 250 251 251 252 253 254 255 256 256 258 260 261 261 260 261 261 262 263 264 264 263 264 263 263 263 263 263 263 264 264 265
248 249 250 249 249 250 251 251 250 250 249 250 251 251 252 253 254 255 256 257 259 260 261 262 262 261 260 261 262 263 264 264 264 264 264 263 263 262 262 264 264 266 267
Height
5838 5839 5841 5842 5844 5845 5846 5848 5849 5850 5851 5852 5854 5855 5856 5856 5857 5858 5859 5860 5861 5863 5864 5865 5866 5866 5867 5868 5869 5870 5870 5871 5872 5873 5873 5874 5874 5875 5875 5875 5875 5875 5876
5836 5837 5838 5840 5841 5843 5844 5846 5847 5848 5850 5851 5852 5853 5854 5855 5856 5857 5858 5859 5860 5862 5863 5864 5865 5866 5867 5867 5868 5869 5870 5871 5872 5872 5873 5874 5874 5875 5875 5875 5875 5875 5876
5832 5834 5835 5836 5838 5840 5841 5843 5845 5846 5848 5849 5850 5851 5853 5854 5855 5856 5856 5858 5859 5860 5862 5863 5864 5865 5866 5866 5867 5868 5869 5870 5871 5872 5873 5873 5874 5874 5874 5875 5875 5875 5875
5828 5830 5831 5833 5835 5836 5838 5840 5842 5843 5845 5847 5848 5849 5851 5852 5853 5854 5855 5856 5857 5859 5860 5861 5863 5864 5864 5865 5866 5867 5868 5869 5870 5871 5872 5873 5873 5874 5874 5874 5874 5875 5875
5824 5826 5827 5829 5831 5832 5834 5836 5838 5840 5842 5844 5845 5847 5848 5849 5851 5852 5853 5854 5855 5857 5858 5860 5861 5862 5863 5864 5865 5866 5867 5868 5869 5870 5871 5871 5872 5873 5873 5873 5874 5874 5874
5819 5821 5823 5825 5827 5828 5830 5832 5834 5837 5839 5840 5842 5844 5845 5847 5848 5849 5851 5852 5853 5855 5856 5858 5859 5860 5861 5863 5864 5864 5865 5866 5867 5868 5869 5870 5871 5871 5872 5872 5873 5873 5873
5814 5816 5818 5820 5822 5824 5826 5828 5830 5833 5835 5837 5839 5841 5842 5844 5845 5847 5848 5849 5851 5852 5854 5856 5857 5858 5860 5861 5862 5863 5864 5865 5866 5867 5867 5868 5869 5870 5870 5871 5871 5871 5871
5808 5810 5812 5815 5817 5819 5822 5824 5826 5829 5831 5833 5835 5837 5839 5840 5842 5844 5845 5847 5848 5850 5851 5853 5855 5856 5857 5858 5859 5861 5861 5863 5864 5864 5865 5866 5867 5867 5868 5869 5869 5869 5870
5802 5805 5807 5809 5812 5814 5817 5819 5822 5824 5826 5829 5831 5833 5835 5837 5838 5840 5842 5843 5845 5847 5848 5850 5852 5853 5854 5856 5857 5858 5859 5860 5861 5862 5863 5864 5864 5865 5866 5866 5867 5867 5867
5797 5799 5801 5804 5806 5809 5811 5814 5817 5819 5822 5824 5826 5828 5831 5833 5835 5836 5838 5840 5842 5843 5845 5847 5848 5850 5851 5853 5854 5855 5856 5857 5858 5859 5860 5860 5861 5862 5863 5863 5864 5865 5865
5791 5793 5796 5798 5801 5803 5806 5809 5812 5814 5817 5819 5821 5824 5826 5828 5830 5832 5834 5836 5838 5840 5841 5843 5845 5846 5848 5849 5851 5852 5853 5854 5855 5856 5856 5857 5857 5858 5859 5860 5861 5862 5862
5785 5787 5790 5792 5795 5798 5800 5803 5806 5809 5811 5814 5816 5819 5821 5823 5826 5828 5830 5832 5834 5836 5837 5839 5841 5843 5844 5846 5847 5848 5849 5850 5851 5852 5852 5853 5854 5854 5855 5856 5857 5858 5858
5779 5781 5783 5786 5788 5792 5794 5797 5800 5803 5806 5808 5811 5814 5816 5818 5821 5823 5825 5827 5829 5831 5833 5835 5837 5838 5840 5842 5843 5844 5845 5846 5847 5848 5848 5849 5850 5850 5851 5852 5853 5854 5854
5773 5775 5777 5779 5782 5785 5788 5791 5794 5797 5800 5803 5805 5808 5810 5813 5815 5818 5820 5822 5824 5826 5828 5830 5832 5834 5835 5837 5838 5840 5841 5842 5843 5843 5844 5844 5845 5846 5847 5848 5848 5849 5849
5766 5768 5771 5773 5775 5778 5781 5784 5787 5790 5794 5796 5799 5802 5805 5807 5810 5812 5814 5817 5819 5821 5823 5825 5827 5829 5830 5832 5833 5835 5836 5837 5838 5839 5839 5840 5840 5841 5842 5843 5843 5844 5844
5760 5762 5764 5766 5769 5772 5775 5778 5781 5784 5787 5790 5793 5796 5798 5801 5803 5806 5808 5811 5813 5815 5817 5819 5821 5823 5824 5826 5827 5829 5830 5831 5832 5833 5834 5834 5835 5836 5836 5837 5838 5838 5839
5753 5755 5757 5760 5762 5765 5768 5771 5774 5777 5780 5783 5786 5789 5791 5794 5797 5799 5802 5804 5807 5809 5811 5813 5814 5816 5818 5819 5821 5822 5824 5825 5826 5827 5827 5828 5829 5830 5831 5832 5832 5832 5833
5746 5748 5750 5753 5756 5759 5761 5764 5767 5770 5773 5776 5779 5782 5784 5787 5789 5792 5795 5797 5800 5802 5804 5806 5808 5810 5811 5812 5814 5815 5817 5818 5819 5820 5821 5822 5822 5824 5824 5825 5826 5826 5826
5738 5741 5743 5746 5749 5751 5754 5757 5759 5762 5765 5768 5771 5774 5777 5780 5782 5785 5788 5790 5792 5795 5796 5798 5800 5802 5804 5805 5806 5808 5809 5811 5812 5813 5814 5815 5815 5816 5817 5818 5818 5819 5819
5731 5733 5736 5739 5741 5744 5746 5749 5752 5755 5758 5760 5763 5766 5769 5772 5775 5777 5780 5782 5785 5787 5788 5790 5792 5794 5795 5797 5799 5800 5802 5803 5804 5805 5806 5807 5808 5809 5809 5810 5810 5811 5812
5723 5726 5728 5731 5733 5736 5739 5741 5744 5747 5750 5753 5755 5758 5761 5764 5766 5769 5772 5774 5776 5779 5780 5782 5784 5785 5787 5789 5790 5792 5793 5794 5796 5796 5797 5798 5799 5800 5801 5801 5802 5803 5804
5715 5717 5720 5722 5725 5728 5731 5733 5736 5739 5742 5745 5747 5750 5752 5755 5758 5761 5763 5766 5768 5770 5772 5774 5775 5777 5778 5780 5782 5783 5784 5786 5786 5788 5789 5789 5790 5791 5792 5793 5794 5794 5795
5706 5709 5711 5714 5717 5719 5722 5725 5728 5731 5733 5736 5739 5742 5744 5747 5750 5752 5755 5757 5759 5761 5763 5765 5766 5768 5769 5771 5772 5774 5775 5776 5777 5779 5779 5780 5781 5782 5783 5784 5784 5785 5786
5697 5700 5703 5705 5708 5711 5713 5716 5719 5722 5725 5728 5730 5733 5735 5738 5741 5743 5745 5748 5750 5752 5754 5755 5757 5758 5760 5761 5762 5763 5765 5766 5767 5769 5770 5771 5771 5772 5773 5774 5775 5776 5776
5688 5691 5693 5696 5699 5702 5705 5708 5710 5713 5716 5719 5721 5724 5726 5729 5731 5734 5736 5738 5740 5742 5744 5745 5747 5748 5750 5751 5752 5753 5754 5755 5757 5758 5760 5761 5762 5762 5762 5763 5764 5765 5766
5678 5681 5684 5687 5690 5693 5696 5698 5701 5704 5706 5709 5712 5714 5716 5719 5721 5724 5726 5728 5730 5732 5734 5735 5737 5738 5740 5741 5742 5743 5743 5745 5746 5747 5749 5750 5751 5751 5752 5752 5753 5754 5754